This demonstration page uses our WeatherBlox Daily Observations layout. Learn more.

Left ArrowRight Arrow

Hourly Observations for June 27, 2019

Temp ( °F °C ) Dew Point ( °F °C ) Humidity (%) Winds ( mph kmh ) Pressure ( in mb ) Visibility ( mi km ) Precip ( " mm )
12:59 am 00:59 Mostly Cloudy 76 24.4 64 17.8 67 67 SW 6 9 30.12 1020 10 16 0.00 0.00
1:59 am 01:59 Mostly Cloudy 76 24.4 65 18.3 69 69 SW 3 6 30.13 1020 10 16 0.00 0.00
2:59 am 02:59 Mostly Cloudy 75 23.9 65 18.3 71 71 SW 5 7 30.13 1020 10 16 0.00 0.00
3:59 am 03:59 Mostly Cloudy 75 23.9 66 18.9 74 74 SSW 3 6 30.13 1020 10 16 0.00 0.00
4:59 am 04:59 Mostly Cloudy 73 22.8 65 18.3 76 76 SW 5 7 30.14 1021 10 16 0.00 0.00
5:59 am 05:59 Partly Cloudy 73 22.8 66 18.9 79 79 WSW 5 7 30.16 1021 10 16 0.00 0.00
6:59 am 06:59 Partly Cloudy 77 25 69 20.6 77 77 WSW 5 7 30.17 1022 10 16 0.00 0.00
7:59 am 07:59 Partly Cloudy 79 26.1 68 20 69 69 WSW 7 11 30.18 1022 9 14 0.00 0.00
8:59 am 08:59 Mostly Cloudy 82 27.8 69 20.6 65 65 VRB 6 9 30.18 1022 9 14 0.00 0.00
9:59 am 09:59 Partly Cloudy 85 29.4 70 21.1 61 61 WNW 5 7 30.18 1022 8 13 0.00 0.00
10:59 am 10:59 Partly Cloudy 88 31.1 67 19.4 50 50 N 7 11 30.19 1022 10 16 0.00 0.00
11:59 am 11:59 Partly Cloudy 88 31.1 68 20 52 52 N 8 13 30.19 1022 10 16 0.00 0.00
12:59 pm 12:59 Mostly Cloudy 89 31.7 67 19.4 48 48 NE 6 9 30.18 1022 10 16 0.00 0.00
1:59 pm 13:59 Partly Cloudy 89 31.7 69 20.6 52 52 NE 6 9 30.17 1022 10 16 0.00 0.00
2:59 pm 14:59 Partly Cloudy 91 32.8 65 18.3 42 42 ENE 6 9 30.16 1021 10 16 0.00 0.00
3:59 pm 15:59 Partly Cloudy 92 33.3 61 16.1 36 36 N 8 13 30.15 1021 10 16 0.00 0.00
4:59 pm 16:59 Mostly Sunny 91 32.8 61 16.1 37 37 E 7 11 30.14 1021 10 16 0.00 0.00
5:59 pm 17:59 Mostly Sunny 90 32.2 62 16.7 39 39 E 6 9 30.14 1021 10 16 0.00 0.00
6:59 pm 18:59 Mostly Sunny 89 31.7 61 16.1 39 39 ESE 5 7 30.13 1020 10 16 0.00 0.00
7:59 pm 19:59 Mostly Sunny 83 28.3 66 18.9 57 57 ESE 5 7 30.15 1021 10 16 0.00 0.00
8:59 pm 20:59 Mostly Clear 83 28.3 67 19.4 59 59 SSE 5 7 30.15 1021 10 16 0.00 0.00
9:59 pm 21:59 Mostly Clear 82 27.8 68 20 63 63 S 3 6 30.16 1021 10 16 0.00 0.00
10:59 pm 22:59 Mostly Clear 79 26.1 68 20 69 69 SSE 5 7 30.16 1022 10 16 0.00 0.00
11:59 pm 23:59 Clear 76 24.4 69 20.6 79 79 SSE 3 6 30.17 1022 10 16 0.00 0.00

Powered by AerisWeather